Location: Newark
(62.0631°N, 6.8261°W)
Time: 20:41:08
(UTC+00:00)

Envisat - Visible Passes

Search period start: 15 November 2019 00:00
Search period end: 25 November 2019 00:00
Orbit: 764 x 766 km, 98.1° (Epoch: 14 November)

Date Brightness Start Highest point End Pass type
(mag) Time Alt. Az. Time Alt. Az. Time Alt. Az.
15 Nov 4.9 06:45:20 10° NNE 06:49:57 33° E 06:54:33 10° SSE visible
15 Nov 3.7 16:32:28 10° ESE 16:36:58 33° NE 16:41:30 10° N visible
15 Nov 3.2 18:10:39 10° S 18:15:44 73° WSW 18:20:52 10° NNW visible
15 Nov 5.6 19:52:05 10° SW 19:55:41 19° W 19:59:17 10° NW visible
16 Nov 5.7 06:08:56 10° NE 06:12:44 21° E 06:16:30 10° SE visible
16 Nov 2.9 17:33:53 10° SSE 17:38:56 70° ENE 17:44:02 10° NNW visible
16 Nov 4.8 19:13:56 10° SSW 19:18:26 31° W 19:22:58 10° NNW visible
17 Nov 6.2 05:33:16 10° NE 05:35:19 12° ENE 05:37:21 10° E visible
17 Nov 4.2 07:10:43 10° NNE 07:15:40 47° E 07:20:35 10° S visible
17 Nov 3.3 16:57:29 10° SE 17:02:18 44° ENE 17:07:08 10° NNW visible
17 Nov 3.9 18:36:24 10° S 18:41:21 51° W 18:46:21 10° NNW visible
17 Nov 6.0 20:19:14 10° WSW 20:21:38 13° WNW 20:24:02 10° NW visible
18 Nov 5.2 06:34:07 10° NNE 06:38:34 29° E 06:42:58 10° SSE visible
18 Nov 3.0 17:59:21 10° SSE 18:04:27 84° WSW 18:09:35 10° NNW visible
18 Nov 5.4 19:40:20 10° SW 19:44:15 22° W 19:48:11 10° NW visible
19 Nov 5.9 05:57:52 10° NE 06:01:17 18° E 06:04:42 10° SE visible
19 Nov 3.5 07:36:11 10° NNE 07:41:17 68° ESE 07:46:22 10° S visible
19 Nov 3.0 17:22:41 10° SE 17:27:42 61° ENE 17:32:43 10° NNW visible
19 Nov 4.6 19:02:22 10° SSW 19:07:03 36° W 19:11:45 10° NNW visible
20 Nov 6.4 05:23:02 10° ENE 05:23:49 10° ENE 05:24:36 10° E visible
20 Nov 4.5 06:59:28 10° NNE 07:04:19 41° E 07:09:07 10° SSE visible
20 Nov 3.4 16:46:24 10° ESE 16:51:05 39° NE 16:55:48 10° N visible
20 Nov 3.6 18:25:00 10° S 18:30:01 59° WSW 18:35:05 10° NNW visible
20 Nov 5.9 20:07:10 10° WSW 20:10:10 15° W 20:13:09 10° NW visible
21 Nov 5.4 06:22:57 10° NNE 06:27:09 25° E 06:31:19 10° SE visible
21 Nov 2.9 17:48:03 10° SSE 17:53:09 85° ENE 17:58:17 10° NNW visible
21 Nov 5.2 19:28:38 10° SW 19:32:50 25° W 19:37:03 10° NNW visible
22 Nov 6.0 05:46:52 10° NE 05:49:50 15° E 05:52:46 10° ESE visible
22 Nov 3.7 07:24:55 10° NNE 07:29:58 59° ESE 07:35:00 10° S visible
22 Nov 3.1 17:11:31 10° SE 17:16:27 53° ENE 17:21:25 10° NNW visible
22 Nov 4.3 18:50:52 10° SSW 18:55:40 41° W 19:00:31 10° NNW visible
22 Nov 6.2 20:35:11 10° W 20:36:10 10° WNW 20:37:08 10° WNW visible
23 Nov 4.8 06:48:15 10° NNE 06:52:57 35° E 06:57:36 10° SSE visible
23 Nov 3.6 16:35:19 10° ESE 16:39:54 35° NE 16:44:29 10° N visible
23 Nov 3.3 18:13:38 10° S 18:18:42 69° WSW 18:23:49 10° NNW visible
23 Nov 5.7 19:55:15 10° SW 19:58:42 18° W 20:02:09 10° NW visible
24 Nov 5.6 06:11:49 10° NE 06:15:44 22° E 06:19:38 10° SE visible
24 Nov 3.2 07:50:25 10° NNE 07:55:33 83° ESE 08:00:40 10° SSW visible
24 Nov 2.9 17:36:49 10° SSE 17:41:53 74° ENE 17:46:59 10° NNW visible
24 Nov 4.9 19:17:00 10° SSW 19:21:25 29° W 19:25:52 10° NNW visible
